When you browse on this site, cookies collect data to enhance your experience and personalize the content and advertising you see.
Visit our Privacy Policy to learn more. By continuing to use the site, you agree to this use of cookies and data.
  • In United Kingdom
  • List of Countries
  • For 7 days
  • Water Temperature
  • Weather Map
  • Weather Widgets
  • user-avatar
    Login

    Hourly Weather Shusha

    Today, 6 June, Saturday

    Time Temperature Precipitation Wind Pressure Humidity
    00:00 +16°C° 0.3 mm 2 mps 662 mmHg 69%
    01:00 +15°C° 0.2 mm 1 mps 662 mmHg 71%
    02:00 +14°C° 0.2 mm 1 mps 662 mmHg 73%
    03:00 +14°C° 0.2 mm 1 mps 662 mmHg 75%
    04:00 +14°C° 0.2 mm 1 mps 662 mmHg 75%
    05:00 +15°C° 0.2 mm 1 mps 662 mmHg 74%
    06:00 +16°C° 0.2 mm 1 mps 663 mmHg 74%
    07:00 +18°C° 0.2 mm 1 mps 663 mmHg 69%
    08:00 +18°C° 0.2 mm 2 mps 663 mmHg 64%
    09:00 +19°C° 0.2 mm 2 mps 664 mmHg 59%
    10:00 +20°C° 0.2 mm 2 mps 664 mmHg 58%
    11:00 +20°C° 0.2 mm 2 mps 664 mmHg 58%
    12:00 +21°C° 0.2 mm 3 mps 664 mmHg 57%
    13:00 +21°C° 0.6 mm 3 mps 663 mmHg 57%
    14:00 +21°C° 0.6 mm 2 mps 663 mmHg 58%
    15:00 +21°C° 0.6 mm 2 mps 663 mmHg 59%
    16:00 +20°C° 0.8 mm 2 mps 663 mmHg 63%
    17:00 +19°C° 0.8 mm 2 mps 663 mmHg 67%
    18:00 +20°C° 0.8 mm 1 mps 663 mmHg 71%
    19:00 +18°C° 0.1 mm 1 mps 662 mmHg 74%
    20:00 +16°C° 0.1 mm 1 mps 662 mmHg 77%
    21:00 +15°C° 0.1 mm 1 mps 662 mmHg 79%
    22:00 +14°C° 0.1 mm 1 mps 662 mmHg 79%
    23:00 +14°C° 0.1 mm 2 mps 662 mmHg 78%

    Tomorrow, 7 June, Sunday

    Time Temperature Precipitation Wind Pressure Humidity
    00:00 +14°C° 0.1 mm 2 mps 662 mmHg 78%
    01:00 +13°C° 0 mm 2 mps 662 mmHg 76%
    02:00 +13°C° 0 mm 2 mps 662 mmHg 75%
    03:00 +13°C° 0 mm 2 mps 662 mmHg 73%
    04:00 +14°C° 0 mm 1 mps 662 mmHg 72%
    05:00 +15°C° 0 mm 1 mps 662 mmHg 70%
    06:00 +16°C° 0 mm 1 mps 663 mmHg 68%
    07:00 +19°C° 0 mm 1 mps 663 mmHg 63%
    08:00 +20°C° 0 mm 1 mps 663 mmHg 58%
    09:00 +22°C° 0 mm 1 mps 664 mmHg 52%
    10:00 +21°C° 0 mm 2 mps 663 mmHg 51%
    11:00 +23°C° 0 mm 2 mps 663 mmHg 50%
    12:00 +24°C° 0 mm 2 mps 663 mmHg 49%
    13:00 +24°C° 0 mm 2 mps 663 mmHg 49%
    14:00 +25°C° 0 mm 2 mps 662 mmHg 49%
    15:00 +25°C° 0 mm 2 mps 662 mmHg 49%
    16:00 +24°C° 0 mm 2 mps 662 mmHg 52%
    17:00 +24°C° 0 mm 2 mps 662 mmHg 55%
    18:00 +23°C° 0 mm 2 mps 661 mmHg 57%
    19:00 +21°C° 0 mm 1 mps 661 mmHg 60%
    20:00 +19°C° 0 mm 1 mps 661 mmHg 63%
    21:00 +16°C° 0 mm 1 mps 661 mmHg 67%
    22:00 +16°C° 0 mm 2 mps 661 mmHg 66%
    23:00 +16°C° 0 mm 2 mps 660 mmHg 66%

    Day after tomorrow, 8 June, Monday

    Time Temperature Precipitation Wind Pressure Humidity
    00:00 +16°C° 0 mm 2 mps 660 mmHg 65%
    01:00 +15°C° 0 mm 2 mps 660 mmHg 64%
    02:00 +15°C° 0 mm 2 mps 660 mmHg 63%
    03:00 +15°C° 0 mm 2 mps 660 mmHg 62%
    04:00 +15°C° 0 mm 2 mps 660 mmHg 61%
    05:00 +16°C° 0 mm 2 mps 660 mmHg 59%
    06:00 +18°C° 0 mm 1 mps 660 mmHg 58%
    07:00 +20°C° 0 mm 1 mps 661 mmHg 52%
    08:00 +20°C° 0 mm 2 mps 661 mmHg 46%
    09:00 +23°C° 0 mm 2 mps 662 mmHg 39%
    10:00 +24°C° 0 mm 2 mps 661 mmHg 38%
    11:00 +25°C° 0 mm 2 mps 661 mmHg 37%
    12:00 +26°C° 0 mm 2 mps 661 mmHg 35%
    13:00 +26°C° 0 mm 2 mps 661 mmHg 36%
    14:00 +26°C° 0 mm 3 mps 661 mmHg 36%
    15:00 +26°C° 0 mm 3 mps 660 mmHg 37%
    16:00 +25°C° 0 mm 2 mps 660 mmHg 41%
    17:00 +24°C° 0 mm 2 mps 660 mmHg 45%
    18:00 +24°C° 0 mm 2 mps 660 mmHg 48%
    19:00 +21°C° 0 mm 2 mps 659 mmHg 51%
    20:00 +19°C° 0 mm 1 mps 659 mmHg 54%
    21:00 +16°C° 0 mm 1 mps 659 mmHg 56%
    22:00 +16°C° 0 mm 2 mps 659 mmHg 56%
    23:00 +16°C° 0 mm 2 mps 659 mmHg 56%

    9 June, Tuesday

    Time Temperature Precipitation Wind Pressure Humidity
    00:00 +16°C° 0 mm 2 mps 659 mmHg 55%
    01:00 +15°C° 0 mm 2 mps 659 mmHg 55%
    02:00 +15°C° 0 mm 2 mps 658 mmHg 55%
    03:00 +14°C° 0 mm 2 mps 658 mmHg 55%
    04:00 +15°C° 0 mm 2 mps 659 mmHg 56%
    05:00 +16°C° 0 mm 2 mps 659 mmHg 57%
    06:00 +17°C° 0 mm 2 mps 659 mmHg 58%
    07:00 +18°C° 0 mm 2 mps 660 mmHg 54%
    08:00 +20°C° 0 mm 2 mps 660 mmHg 49%
    09:00 +23°C° 0 mm 2 mps 661 mmHg 44%
    10:00 +23°C° 0 mm 2 mps 661 mmHg 43%
    11:00 +24°C° 0 mm 2 mps 661 mmHg 43%
    12:00 +25°C° 0 mm 2 mps 661 mmHg 42%
    13:00 +25°C° 0 mm 2 mps 661 mmHg 43%
    14:00 +25°C° 0 mm 2 mps 661 mmHg 44%
    15:00 +26°C° 0 mm 2 mps 660 mmHg 44%
    16:00 +25°C° 0 mm 2 mps 660 mmHg 48%
    17:00 +24°C° 0 mm 2 mps 660 mmHg 52%
    18:00 +24°C° 0 mm 1 mps 660 mmHg 55%
    19:00 +22°C° 0 mm 1 mps 660 mmHg 59%
    20:00 +19°C° 0 mm 2 mps 660 mmHg 62%
    21:00 +17°C° 0 mm 2 mps 660 mmHg 66%
    22:00 +17°C° 0 mm 2 mps 660 mmHg 65%
    23:00 +17°C° 0 mm 2 mps 660 mmHg 64%

    10 June, Wednesday

    Time Temperature Precipitation Wind Pressure Humidity
    00:00 +17°C° 0 mm 2 mps 660 mmHg 64%
    01:00 +18°C° 0 mm 1 mps 659 mmHg 65%
    02:00 +16°C° 0 mm 1 mps 659 mmHg 66%
    03:00 +16°C° 0 mm 1 mps 659 mmHg 68%
    04:00 +18°C° 0 mm 1 mps 659 mmHg 67%
    05:00 +19°C° 0 mm 1 mps 660 mmHg 66%
    06:00 +20°C° 0 mm 1 mps 660 mmHg 65%
    07:00 +21°C° 0 mm 1 mps 661 mmHg 59%
    08:00 +21°C° 0 mm 2 mps 661 mmHg 53%
    09:00 +24°C° 0 mm 2 mps 661 mmHg 46%
    10:00 +24°C° 0 mm 2 mps 661 mmHg 45%
    11:00 +25°C° 0 mm 2 mps 662 mmHg 44%
    12:00 +26°C° 0 mm 2 mps 662 mmHg 43%
    13:00 +26°C° 0.1 mm 2 mps 661 mmHg 43%
    14:00 +27°C° 0.1 mm 2 mps 661 mmHg 43%
    15:00 +27°C° 0.1 mm 2 mps 661 mmHg 43%
    16:00 +26°C° 0.3 mm 2 mps 661 mmHg 48%
    17:00 +25°C° 0.3 mm 1 mps 660 mmHg 53%
    18:00 +24°C° 0.3 mm 1 mps 660 mmHg 58%
    19:00 +23°C° 0.1 mm 1 mps 660 mmHg 61%
    20:00 +21°C° 0.1 mm 1 mps 660 mmHg 65%
    21:00 +18°C° 0.1 mm 2 mps 660 mmHg 68%
    22:00 +18°C° 0 mm 2 mps 660 mmHg 67%
    23:00 +18°C° 0 mm 2 mps 660 mmHg 66%

    11 June, Thursday

    Time Temperature Precipitation Wind Pressure Humidity
    00:00 +18°C° 0 mm 2 mps 660 mmHg 65%
    01:00 +18°C° 0 mm 2 mps 659 mmHg 65%
    02:00 +18°C° 0 mm 2 mps 659 mmHg 64%
    03:00 +17°C° 0 mm 2 mps 659 mmHg 64%
    04:00 +19°C° 0 mm 1 mps 659 mmHg 63%
    05:00 +20°C° 0 mm 1 mps 660 mmHg 63%
    06:00 +21°C° 0 mm 1 mps 660 mmHg 62%
    07:00 +23°C° 0 mm 1 mps 660 mmHg 57%
    08:00 +24°C° 0 mm 1 mps 660 mmHg 51%
    09:00 +25°C° 0 mm 2 mps 661 mmHg 45%
    10:00 +26°C° 0 mm 2 mps 661 mmHg 43%
    11:00 +27°C° 0 mm 2 mps 661 mmHg 40%
    12:00 +28°C° 0 mm 2 mps 660 mmHg 38%
    13:00 +28°C° 0.1 mm 3 mps 660 mmHg 37%
    14:00 +28°C° 0.1 mm 3 mps 660 mmHg 37%
    15:00 +28°C° 0.1 mm 3 mps 659 mmHg 37%
    16:00 +27°C° 0.2 mm 2 mps 659 mmHg 41%
    17:00 +26°C° 0.2 mm 2 mps 659 mmHg 45%
    18:00 +25°C° 0.2 mm 1 mps 659 mmHg 48%
    19:00 +24°C° 0.1 mm 1 mps 659 mmHg 51%
    20:00 +21°C° 0.1 mm 2 mps 659 mmHg 54%
    21:00 +20°C° 0.1 mm 2 mps 659 mmHg 56%
    22:00 +19°C° 0 mm 2 mps 658 mmHg 56%
    23:00 +19°C° 0 mm 2 mps 658 mmHg 56%
    Show more